Orbital Elements at Epoch 2459200.5 (2020-Dec-17.0) TDB
Reference: JPL 42 (heliocentric ecliptic J2000)
Element | Value | Uncertainty (1-sigma) | Units |
e | .2149866971487456 | 3.5732e-08 | |
a | 2.807189485714873 | 8.4307e-09 | au |
q | 2.203681089910347 | 9.9486e-08 | au |
i | 4.740623529696852 | 3.8392e-06 | deg |
node | 160.9542072348187 | 3.6885e-05 | deg |
peri | 191.1764788162897 | 3.7474e-05 | deg |
M | 186.5556586000653 | 7.1295e-06 | deg |
tp | 2460028.182274568274 (2023-Mar-24.68227457) | 3.5312e-05 | TDB |
period | 1717.932199111171 4.70 | 7.7391e-06 2.119e-08 | d yr |
n | .2095542537629005 | 9.4402e-10 | deg/d |
Q | 3.4106978815194 | 1.0243e-08 | au |
|
| | Orbit Determination Parameters
Additional Information
|